EW8215 Weather Reports


Display with metric or nautical units.
time (UTC)temp
F
wind
direction
speed
MPH
gust
MPH
rain 1hr
in
rain 24hr
in
rain mn
in
humidity
%
barometer
mb
20260831040715 82 141 0.0 0.0 0.00 0.00 0.00 67 1015.7
20260831040214 83 142 0.0 0.0 0.00 0.00 0.00 66 1015.7
20260831035712 84 134 2.0 3.0 0.00 0.00 0.00 65 1015.7
20260831035207 84 153 2.0 2.0 0.00 0.00 0.00 64 1015.5
20260831034706 84 136 2.0 2.0 0.00 0.00 0.00 63 1015.5
20260831034201 85 172 2.0 3.0 0.00 0.00 0.00 62 1015.4
20260831033657 84 108 1.0 3.0 0.00 0.00 0.00 62 1015.2
20260831033157 84 151 0.0 0.0 0.00 0.00 0.00 62 1015.3
20260831032652 84 150 2.0 2.0 0.00 0.00 0.00 63 1015.2
20260831032147 84 150 0.0 2.0 0.00 0.00 0.00 63 1015.1
20260831031642 84 128 1.0 2.0 0.00 0.00 0.00 63 1015.0
20260831031141 84 138 2.0 2.0 0.00 0.00 0.00 63 1015.1
20260831030640 84 149 0.0 0.0 0.00 0.00 0.00 62 1014.9
20260831030139 84 131 0.0 2.0 0.00 0.00 0.00 62 1014.8
20260831025638 85 141 0.0 0.0 0.00 0.00 0.00 60 1014.9
20260831025133 85 150 0.0 0.0 0.00 0.00 0.00 59 1014.8
20260831024629 85 138 0.0 2.0 0.00 0.00 0.00 59 1014.8
20260831024128 85 150 1.0 3.0 0.00 0.00 0.00 58 1014.7
20260831023626 85 152 0.0 0.0 0.00 0.00 0.00 59 1014.6
20260831023125 84 149 0.0 0.0 0.00 0.00 0.00 59 1014.6
20260831022620 84 120 0.0 2.0 0.00 0.00 0.00 60 1014.4
20260831022115 84 138 0.0 0.0 0.00 0.00 0.00 60 1014.3
20260831021614 85 135 0.0 0.0 0.00 0.00 0.00 59 1014.3
20260831021110 85 133 1.0 2.0 0.00 0.00 0.00 58 1014.1
20260831020607 85 136 0.0 0.0 0.00 0.00 0.00 58 1014.0
20260831015557 86 136 1.0 2.0 0.00 0.00 0.00 56 1014.0
20260831015056 86 142 1.0 2.0 0.00 0.00 0.00 56 1013.9
20260831014551 86 131 2.0 2.0 0.00 0.00 0.00 56 1014.1
20260831014047 87 128 2.0 2.0 0.00 0.00 0.00 55 1013.8
20260831013544 87 140 0.0 0.0 0.00 0.00 0.00 54 1013.9
20260831013043 87 136 0.0 0.0 0.00 0.00 0.00 53 1013.8
20260831012538 87 144 0.0 2.0 0.00 0.00 0.00 53 1013.6
20260831012032 88 135 0.0 2.0 0.00 0.00 0.00 53 1013.6
20260831011526 88 130 1.0 2.0 0.00 0.00 0.00 51 1013.7
20260831011022 89 150 1.0 2.0 0.00 0.00 0.00 51 1013.8
20260831010522 89 117 2.0 2.0 0.00 0.00 0.00 50 1013.7
20260831010019 89 144 0.0 2.0 0.00 0.00 0.00 50 1013.8
20260831005514 90 139 0.0 0.0 0.00 0.00 0.00 49 1013.6
20260831005013 91 135 1.0 2.0 0.00 0.00 0.00 48 1013.6
20260831004510 91 132 2.0 3.0 0.00 0.00 0.00 48 1013.4
20260831004005 91 127 2.0 3.0 0.00 0.00 0.00 47 1013.5
20260831003501 92 142 2.0 3.0 0.00 0.00 0.00 47 1013.5
20260831003000 92 148 4.0 5.0 0.00 0.00 0.00 46 1013.3
20260831002459 93 122 2.0 2.0 0.00 0.00 0.00 46 1013.4
20260831001954 94 159 0.0 2.0 0.00 0.00 0.00 44 1013.4
20260831001449 94 143 2.0 2.0 0.00 0.00 0.00 43 1013.5
20260831000947 95 149 0.0 0.0 0.00 0.00 0.00 41 1013.6
20260831000443 95 134 6.0 9.0 0.00 0.00 0.00 42 1013.5
20260830235940 96 117 6.0 7.0 0.00 0.00 0.00 41 1013.5
20260830235436 96 150 0.0 0.0 0.00 0.00 0.00 41 1013.4
20260830234931 97 160 1.0 2.0 0.00 0.00 0.00 42 1013.7
20260830234426 97 116 4.0 5.0 0.00 0.00 0.00 41 1013.5
20260830233922 97 192 1.0 2.0 0.00 0.00 0.00 40 1013.5
20260830233417 97 168 2.0 2.0 0.00 0.00 0.00 40 1013.5
20260830232913 98 162 4.0 5.0 0.00 0.00 0.00 40 1013.5
20260830232409 98 147 6.0 9.0 0.00 0.00 0.00 39 1013.4
20260830231906 98 143 0.0 0.0 0.00 0.00 0.00 38 1013.5
20260830231400 98 177 1.0 2.0 0.00 0.00 0.00 38 1013.6
20260830230859 99 144 2.0 5.0 0.00 0.00 0.00 37 1013.5
20260830230355 99 165 1.0 2.0 0.00 0.00 0.00 38 1013.6
20260830225854 99 164 3.0 5.0 0.00 0.00 0.00 38 1013.5
20260830225350 99 180 4.0 5.0 0.00 0.00 0.00 36 1013.5
20260830224844 97 120 4.0 5.0 0.00 0.00 0.00 39 1013.5
20260830224338 96 124 1.0 2.0 0.00 0.00 0.00 41 1013.8
20260830223835 97 168 2.0 3.0 0.00 0.00 0.00 41 1013.6
20260830223331 99 141 3.0 3.0 0.00 0.00 0.00 38 1013.7
20260830222830 99 156 4.0 5.0 0.00 0.00 0.00 39 1013.7
20260830222326 100 145 7.0 10.0 0.00 0.00 0.00 37 1013.6
20260830221821 99 126 6.0 9.0 0.00 0.00 0.00 37 1013.7
20260830221318 100 155 4.0 5.0 0.00 0.00 0.00 38 1013.9
20260830220812 100 216 5.0 9.0 0.00 0.00 0.00 38 1013.9
20260830220312 100 179 2.0 5.0 0.00 0.00 0.00 38 1013.8
20260830215809 99 112 6.0 7.0 0.00 0.00 0.00 38 1013.8
20260830215305 99 170 5.0 7.0 0.00 0.00 0.00 38 1013.7
20260830214800 97 107 2.0 3.0 0.00 0.00 0.00 42 1013.8
20260830214255 99 153 9.0 10.0 0.00 0.00 0.00 40 1013.8
20260830213754 100 122 6.0 10.0 0.00 0.00 0.00 39 1013.9
20260830213249 99 155 5.0 7.0 0.00 0.00 0.00 39 1014.2
20260830212745 99 231 9.0 12.0 0.00 0.00 0.00 39 1014.2
20260830212241 99 89 9.0 14.0 0.00 0.00 0.00 41 1014.1
20260830211740 99 107 5.0 9.0 0.00 0.00 0.00 40 1014.2
20260830211239 97 129 5.0 9.0 0.00 0.00 0.00 42 1014.3
20260830210736 98 126 3.0 3.0 0.00 0.00 0.00 43 1014.4
20260830210235 99 181 3.0 5.0 0.00 0.00 0.00 41 1014.6
20260830205732 100 139 9.0 12.0 0.00 0.00 0.00 42 1014.6
20260830205227 100 170 7.0 9.0 0.00 0.00 0.00 42 1014.5
20260830204722 99 131 6.0 9.0 0.00 0.00 0.00 41 1014.6
20260830204221 96 183 3.0 3.0 0.00 0.00 0.00 43 1014.6
20260830203717 98 210 0.0 2.0 0.00 0.00 0.00 43 1014.9
20260830203212 99 200 3.0 7.0 0.00 0.00 0.00 40 1014.8
20260830202711 100 180 5.0 5.0 0.00 0.00 0.00 40 1014.8
20260830202208 98 169 2.0 3.0 0.00 0.00 0.00 43 1014.9
20260830201701 98 190 5.0 7.0 0.00 0.00 0.00 42 1014.9
20260830201156 98 174 3.0 3.0 0.00 0.00 0.00 44 1015.1
20260830200652 100 185 8.0 10.0 0.00 0.00 0.00 41 1015.0
20260830200151 98 158 5.0 7.0 0.00 0.00 0.00 44 1015.1
20260830195647 99 159 0.0 2.0 0.00 0.00 0.00 43 1015.3
20260830195144 99 159 7.0 9.0 0.00 0.00 0.00 44 1015.4
20260830194643 99 150 5.0 7.0 0.00 0.00 0.00 43 1015.5
20260830194138 98 143 6.0 9.0 0.00 0.00 0.00 43 1015.4
20260830193633 98 161 2.0 3.0 0.00 0.00 0.00 45 1015.4
20260830193132 98 127 7.0 9.0 0.00 0.00 0.00 44 1015.6
20260830192628 97 129 4.0 7.0 0.00 0.00 0.00 46 1015.8
20260830192123 97 170 6.0 9.0 0.00 0.00 0.00 46 1015.7
20260830191618 97 244 6.0 7.0 0.00 0.00 0.00 45 1015.7
20260830191113 98 162 2.0 3.0 0.00 0.00 0.00 45 1016.1
20260830190609 97 146 1.0 3.0 0.00 0.00 0.00 45 1015.9
20260830190104 98 162 9.0 12.0 0.00 0.00 0.00 45 1016.0
20260830185602 97 197 3.0 3.0 0.00 0.00 0.00 45 1016.1
20260830185058 98 142 12.0 14.0 0.00 0.00 0.00 45 1016.3
20260830184557 97 160 5.0 9.0 0.00 0.00 0.00 44 1016.4
20260830184052 97 228 4.0 12.0 0.00 0.00 0.00 45 1016.4
20260830183546 97 192 6.0 9.0 0.00 0.00 0.00 46 1016.4
20260830183043 96 175 2.0 3.0 0.00 0.00 0.00 47 1016.6
20260830182538 96 174 4.0 5.0 0.00 0.00 0.00 48 1016.7
20260830182034 96 194 4.0 5.0 0.00 0.00 0.00 48 1016.9
20260830181530 96 232 4.0 5.0 0.00 0.00 0.00 48 1016.8
20260830181029 95 195 6.0 9.0 0.00 0.00 0.00 47 1017.1
20260830180523 95 178 7.0 14.0 0.00 0.00 0.00 49 1017.0
20260830180022 95 177 4.0 7.0 0.00 0.00 0.00 48 1017.1
20260830175521 95 169 5.0 5.0 0.00 0.00 0.00 49 1017.2
20260830175017 95 198 4.0 5.0 0.00 0.00 0.00 51 1017.3
20260830174513 95 180 6.0 7.0 0.00 0.00 0.00 51 1017.4
20260830174008 94 163 7.0 9.0 0.00 0.00 0.00 51 1017.3
20260830173504 95 163 7.0 10.0 0.00 0.00 0.00 52 1017.7
20260830173003 94 162 1.0 3.0 0.00 0.00 0.00 54 1017.7
20260830172500 94 172 2.0 3.0 0.00 0.00 0.00 53 1017.9
20260830171955 94 186 8.0 9.0 0.00 0.00 0.00 53 1018.0
20260830171451 94 165 1.0 2.0 0.00 0.00 0.00 53 1018.0
20260830170951 94 143 4.0 5.0 0.00 0.00 0.00 55 1018.0
20260830170445 93 153 9.0 10.0 0.00 0.00 0.00 54 1018.1
20260830165943 92 172 3.0 3.0 0.00 0.00 0.00 58 1018.1
20260830165440 93 226 5.0 7.0 0.00 0.00 0.00 57 1018.3
20260830164936 92 202 2.0 5.0 0.00 0.00 0.00 58 1018.1
20260830164432 91 192 3.0 3.0 0.00 0.00 0.00 61 1018.3
20260830163923 91 123 2.0 7.0 0.00 0.00 0.00 60 1018.4
20260830163419 90 112 6.0 7.0 0.00 0.00 0.00 61 1018.3
20260830162918 90 166 8.0 9.0 0.00 0.00 0.00 62 1018.1
20260830162414 90 167 4.0 7.0 0.00 0.00 0.00 63 1018.2
20260830161909 90 183 6.0 10.0 0.00 0.00 0.00 62 1018.3
20260830161408 90 251 10.0 14.0 0.00 0.00 0.00 62 1018.4
20260830160903 89 174 4.0 7.0 0.00 0.00 0.00 65 1018.3
20260830160359 89 248 4.0 5.0 0.00 0.00 0.00 64 1018.2
20260830155854 89 161 1.0 2.0 0.00 0.00 0.00 65 1018.4
20260830155350 90 192 4.0 5.0 0.00 0.00 0.00 66 1018.2
20260830154845 88 161 3.0 3.0 0.00 0.00 0.00 65 1018.4
20260830154341 88 248 6.0 9.0 0.00 0.00 0.00 66 1018.6
20260830153838 88 195 7.0 10.0 0.00 0.00 0.00 66 1018.5
20260830153333 88 222 6.0 7.0 0.00 0.00 0.00 68 1018.3
20260830152831 88 181 6.0 9.0 0.00 0.00 0.00 67 1018.5
20260830152326 88 200 6.0 9.0 0.00 0.00 0.00 65 1018.4
20260830151821 88 209 5.0 5.0 0.00 0.00 0.00 69 1018.4
20260830151320 88 188 2.0 5.0 0.00 0.00 0.00 69 1018.3
20260830150816 87 151 5.0 7.0 0.00 0.00 0.00 69 1018.4
20260830150315 86 145 2.0 3.0 0.00 0.00 0.00 72 1018.3
20260830145809 86 203 6.0 7.0 0.00 0.00 0.00 72 1018.1
20260830145306 84 246 8.0 10.0 0.00 0.00 0.00 74 1018.1
20260830144800 84 191 7.0 9.0 0.00 0.00 0.00 76 1018.2
20260830144255 84 214 4.0 7.0 0.00 0.00 0.00 75 1018.3
20260830143751 85 173 8.0 9.0 0.00 0.00 0.00 75 1018.2
20260830143250 84 234 7.0 10.0 0.00 0.00 0.00 75 1018.2
20260830142745 84 170 6.0 7.0 0.00 0.00 0.00 77 1018.1
20260830142240 84 172 4.0 5.0 0.00 0.00 0.00 77 1018.2
20260830141735 83 178 4.0 5.0 0.00 0.00 0.00 79 1018.1
20260830141230 82 169 4.0 7.0 0.00 0.00 0.00 80 1018.1
20260830140725 82 187 6.0 9.0 0.00 0.00 0.00 81 1018.3
20260830140220 82 153 3.0 5.0 0.00 0.00 0.00 81 1018.3
20260830135714 81 230 6.0 7.0 0.00 0.00 0.00 82 1018.3
20260830135210 81 194 5.0 7.0 0.00 0.00 0.00 83 1018.1
20260830134706 81 203 2.0 3.0 0.00 0.00 0.00 83 1018.1
20260830134200 80 186 6.0 9.0 0.00 0.00 0.00 84 1018.2
20260830133656 80 164 5.0 7.0 0.00 0.00 0.00 84 1018.0
20260830133152 80 204 3.0 5.0 0.00 0.00 0.00 85 1017.9
20260830132648 79 156 6.0 7.0 0.00 0.00 0.00 86 1018.0
20260830132143 78 216 4.0 7.0 0.00 0.00 0.00 87 1018.0
20260830131642 78 178 2.0 3.0 0.00 0.00 0.00 88 1017.9
20260830131136 77 179 7.0 10.0 0.00 0.00 0.00 88 1017.8
20260830130631 77 162 1.0 2.0 0.00 0.00 0.00 89 1017.8
20260830130126 76 173 2.0 3.0 0.00 0.00 0.00 90 1017.4
20260830125625 76 177 4.0 5.0 0.00 0.00 0.00 90 1017.6
20260830125126 76 171 2.0 2.0 0.00 0.00 0.00 91 1017.3
20260830124624 75 154 2.0 3.0 0.00 0.00 0.00 91 1017.4
20260830124119 75 170 2.0 3.0 0.00 0.00 0.00 92 1017.4
20260830123617 75 162 0.0 0.0 0.00 0.00 0.00 92 1017.4
20260830123112 75 181 0.0 0.0 0.00 0.00 0.00 92 1017.4
20260830122608 75 155 0.0 0.0 0.00 0.00 0.00 92 1017.2
20260830122104 75 174 0.0 0.0 0.00 0.00 0.00 92 1017.3
20260830121600 74 163 0.0 0.0 0.00 0.00 0.00 92 1017.2
20260830121059 75 157 0.0 0.0 0.00 0.00 0.00 92 1017.0
20260830120554 74 159 0.0 0.0 0.00 0.00 0.00 92 1016.9
20260830120051 74 151 0.0 0.0 0.00 0.00 0.00 92 1017.0
20260830115547 75 148 0.0 0.0 0.00 0.00 0.00 91 1016.9
20260830115042 75 182 0.0 0.0 0.00 0.00 0.00 91 1016.8
20260830114539 75 156 0.0 0.0 0.00 0.00 0.00 91 1016.8
20260830114038 75 160 0.0 0.0 0.00 0.00 0.00 90 1016.7
20260830113533 75 184 0.0 2.0 0.00 0.00 0.00 90 1016.7
20260830113029 75 155 0.0 0.0 0.00 0.00 0.00 90 1016.7
20260830112525 75 151 0.0 0.0 0.00 0.00 0.00 90 1016.5
20260830112020 75 167 0.0 0.0 0.00 0.00 0.00 90 1016.8
20260830111516 75 163 0.0 0.0 0.00 0.00 0.00 89 1016.7
20260830111012 75 171 0.0 0.0 0.00 0.00 0.00 89 1016.6
20260830110512 75 162 2.0 3.0 0.00 0.00 0.00 89 1016.8
20260830110007 75 159 0.0 0.0 0.00 0.00 0.00 89 1016.5
20260830105503 75 156 0.0 0.0 0.00 0.00 0.00 88 1016.6
20260830104959 75 152 0.0 0.0 0.00 0.00 0.00 88 1016.6
20260830104455 75 157 0.0 0.0 0.00 0.00 0.00 88 1016.6
20260830103950 76 152 0.0 0.0 0.00 0.00 0.00 88 1016.5
20260830103446 76 160 0.0 0.0 0.00 0.00 0.00 87 1016.6
20260830102943 76 157 0.0 0.0 0.00 0.00 0.00 87 1016.5
20260830102438 76 167 2.0 2.0 0.00 0.00 0.00 86 1016.4
20260830101934 76 162 0.0 2.0 0.00 0.00 0.00 86 1016.6
20260830101430 76 157 0.0 0.0 0.00 0.00 0.00 86 1016.5
20260830100929 77 161 0.0 0.0 0.00 0.00 0.00 86 1016.3
20260830100428 77 162 2.0 2.0 0.00 0.00 0.00 86 1016.5
20260830095927 77 166 2.0 2.0 0.00 0.00 0.00 85 1016.5
20260830095423 77 163 2.0 3.0 0.00 0.00 0.00 85 1016.4
20260830094920 77 209 3.0 3.0 0.00 0.00 0.00 85 1016.3
20260830094416 77 167 2.0 2.0 0.00 0.00 0.00 84 1016.3
20260830093911 77 167 0.0 0.0 0.00 0.00 0.00 84 1016.6
20260830093406 77 166 3.0 3.0 0.00 0.00 0.00 84 1016.5
20260830092901 77 167 0.0 2.0 0.00 0.00 0.00 84 1016.4
20260830092357 77 165 2.0 2.0 0.00 0.00 0.00 84 1016.4
20260830091854 78 158 0.0 2.0 0.00 0.00 0.00 83 1016.4
20260830091353 78 159 2.0 3.0 0.00 0.00 0.00 83 1016.4
20260830090852 78 162 0.0 0.0 0.00 0.00 0.00 83 1016.2
20260830090348 78 171 0.0 2.0 0.00 0.00 0.00 83 1016.4
20260830085848 78 161 0.0 0.0 0.00 0.00 0.00 82 1016.2
20260830085343 78 157 2.0 2.0 0.00 0.00 0.00 82 1016.2
20260830084839 78 159 0.0 0.0 0.00 0.00 0.00 82 1016.2
20260830084334 78 163 1.0 2.0 0.00 0.00 0.00 82 1016.4
20260830083829 78 164 0.0 0.0 0.00 0.00 0.00 82 1016.4
20260830083326 78 155 3.0 3.0 0.00 0.00 0.00 82 1016.5
20260830082825 78 176 0.0 2.0 0.00 0.00 0.00 82 1016.3
20260830082320 78 163 0.0 0.0 0.00 0.00 0.00 82 1016.3
20260830081815 79 182 2.0 3.0 0.00 0.00 0.00 82 1016.4
20260830081309 79 164 0.0 0.0 0.00 0.00 0.00 82 1016.5
20260830080808 79 162 0.0 0.0 0.00 0.00 0.00 82 1016.5
20260830080305 79 165 0.0 0.0 0.00 0.00 0.00 81 1016.3
20260830075804 79 166 0.0 0.0 0.00 0.00 0.00 82 1016.6
20260830075300 79 168 0.0 0.0 0.00 0.00 0.00 82 1016.5
20260830074754 79 149 2.0 3.0 0.00 0.00 0.00 82 1016.5
20260830074251 79 158 1.0 2.0 0.00 0.00 0.00 81 1016.6
20260830073746 80 157 0.0 0.0 0.00 0.00 0.00 81 1016.7
20260830073242 80 158 0.0 0.0 0.00 0.00 0.00 80 1016.4
20260830072736 80 159 2.0 2.0 0.00 0.00 0.00 80 1016.5
20260830072231 80 166 2.0 3.0 0.00 0.00 0.00 80 1016.5
20260830071726 80 169 2.0 2.0 0.00 0.00 0.00 80 1016.7
20260830071225 81 171 2.0 3.0 0.00 0.00 0.00 79 1016.6
20260830070720 81 165 1.0 2.0 0.00 0.00 0.00 79 1016.8
20260830070214 81 169 2.0 2.0 0.00 0.00 0.00 79 1016.6
20260830065713 81 161 1.0 2.0 0.00 0.00 0.00 79 1016.8
20260830065214 81 159 2.0 3.0 0.00 0.00 0.00 78 1016.8
20260830064712 81 152 2.0 3.0 0.00 0.00 0.00 78 1016.8
20260830064208 81 178 3.0 3.0 0.00 0.00 0.00 78 1016.7
20260830063708 81 147 2.0 3.0 0.00 0.00 0.00 78 1016.6
20260830063207 81 160 3.0 3.0 0.00 0.00 0.00 77 1016.6
20260830062702 82 161 0.0 2.0 0.00 0.00 0.00 77 1016.5
20260830062156 82 179 5.0 7.0 0.00 0.00 0.00 77 1016.5
20260830061656 82 167 2.0 3.0 0.00 0.00 0.00 77 1016.6
20260830061152 82 174 0.0 0.0 0.00 0.00 0.00 77 1016.5
20260830060649 82 164 0.0 0.0 0.00 0.00 0.00 77 1016.7
20260830060145 82 159 0.0 0.0 0.00 0.00 0.00 76 1016.5
20260830055639 82 153 0.0 2.0 0.00 0.00 0.00 76 1016.5
20260830055136 82 174 0.0 2.0 0.00 0.00 0.00 75 1016.4
20260830054631 83 168 0.0 0.0 0.00 0.00 0.00 75 1016.3
20260830054126 83 165 0.0 2.0 0.00 0.00 0.00 75 1016.4
20260830053622 83 166 0.0 0.0 0.00 0.00 0.00 74 1016.3
20260830053121 83 149 0.0 0.0 0.00 0.00 0.00 74 1016.5
20260830052617 83 195 4.0 5.0 0.00 0.00 0.00 73 1016.4
20260830052112 83 157 0.0 2.0 0.00 0.00 0.00 73 1016.5
20260830051606 84 156 2.0 3.0 0.00 0.00 0.00 72 1016.6
20260830051102 84 173 2.0 3.0 0.00 0.00 0.00 72 1016.3
20260830050600 84 161 1.0 2.0 0.00 0.00 0.00 71 1016.3
20260830050055 84 172 2.0 3.0 0.00 0.00 0.00 71 1016.3
20260830045549 84 196 6.0 9.0 0.00 0.00 0.00 70 1016.3
20260830045044 84 196 5.0 5.0 0.00 0.00 0.00 70 1016.5
20260830044544 84 145 2.0 3.0 0.00 0.00 0.00 70 1016.5
20260830044038 84 170 4.0 7.0 0.00 0.00 0.00 69 1016.5
20260830043534 84 143 3.0 3.0 0.00 0.00 0.00 68 1016.4
20260830043033 84 162 0.0 0.0 0.00 0.00 0.00 67 1016.5
20260830042531 85 161 2.0 2.0 0.00 0.00 0.00 67 1016.5
20260830042027 85 155 6.0 7.0 0.00 0.00 0.00 66 1016.4
20260830041526 85 162 2.0 3.0 0.00 0.00 0.00 65 1016.5